Hourly Weather Abadeh

Today, 26 October, Monday

Time Temperature Precipitation Wind Pressure Humidity
00:00 +5°C° 0 mm 0 mps 589 mmHg 54%
01:00 +5°C° 0 mm 0 mps 589 mmHg 57%
02:00 +5°C° 0 mm 0 mps 589 mmHg 57%
03:00 +4°C° 0 mm 0 mps 589 mmHg 57%
04:00 +4°C° 0 mm 0 mps 588 mmHg 57%
05:00 +4°C° 0 mm 0 mps 589 mmHg 54%
06:00 +4°C° 0 mm 0 mps 589 mmHg 52%
07:00 +4°C° 0 mm 0 mps 589 mmHg 49%
08:00 +9°C° 0 mm 1 mps 591 mmHg 37%
09:00 +14°C° 0 mm 1 mps 593 mmHg 25%
10:00 +19°C° 0 mm 1 mps 595 mmHg 14%
11:00 +20°C° 0 mm 2 mps 595 mmHg 12%
12:00 +21°C° 0 mm 2 mps 595 mmHg 10%
13:00 +24°C° 0 mm 3 mps 595 mmHg 9%
14:00 +24°C° 0 mm 3 mps 595 mmHg 8%
15:00 +23°C° 0 mm 4 mps 595 mmHg 8%
16:00 +23°C° 0 mm 4 mps 595 mmHg 8%
17:00 +19°C° 0 mm 3 mps 593 mmHg 14%
18:00 +15°C° 0 mm 2 mps 591 mmHg 20%
19:00 +10°C° 0 mm 0 mps 590 mmHg 27%
20:00 +10°C° 0 mm 1 mps 590 mmHg 27%
21:00 +10°C° 0 mm 1 mps 590 mmHg 27%
22:00 +8°C° 0 mm 2 mps 590 mmHg 27%
23:00 +8°C° 0 mm 2 mps 590 mmHg 28%

Tomorrow, 27 October, Tuesday

Time Temperature Precipitation Wind Pressure Humidity
00:00 +8°C° 0 mm 1 mps 589 mmHg 29%
01:00 +8°C° 0 mm 1 mps 589 mmHg 30%
02:00 +7°C° 0 mm 1 mps 589 mmHg 33%
03:00 +7°C° 0 mm 1 mps 588 mmHg 35%
04:00 +6°C° 0 mm 1 mps 588 mmHg 37%
05:00 +6°C° 0 mm 1 mps 588 mmHg 35%
06:00 +6°C° 0 mm 1 mps 589 mmHg 32%
07:00 +6°C° 0 mm 1 mps 589 mmHg 30%
08:00 +10°C° 0 mm 1 mps 591 mmHg 25%
09:00 +13°C° 0 mm 1 mps 592 mmHg 20%
10:00 +18°C° 0 mm 1 mps 594 mmHg 15%
11:00 +18°C° 0 mm 2 mps 594 mmHg 13%
12:00 +19°C° 0 mm 2 mps 594 mmHg 12%
13:00 +20°C° 0 mm 2 mps 594 mmHg 11%
14:00 +20°C° 0 mm 3 mps 594 mmHg 11%
15:00 +21°C° 0 mm 3 mps 594 mmHg 11%
16:00 +21°C° 0 mm 4 mps 594 mmHg 10%
17:00 +17°C° 0 mm 3 mps 593 mmHg 14%
18:00 +14°C° 0 mm 2 mps 591 mmHg 17%
19:00 +10°C° 0 mm 2 mps 590 mmHg 21%
20:00 +10°C° 0 mm 1 mps 590 mmHg 25%
21:00 +9°C° 0 mm 1 mps 590 mmHg 29%
22:00 +8°C° 0 mm 1 mps 590 mmHg 33%
23:00 +7°C° 0 mm 1 mps 589 mmHg 37%

Day after tomorrow, 28 October, Wednesday

Time Temperature Precipitation Wind Pressure Humidity
00:00 +7°C° 0 mm 1 mps 589 mmHg 42%
01:00 +5°C° 0 mm 0 mps 589 mmHg 47%
02:00 +5°C° 0 mm 0 mps 589 mmHg 51%
03:00 +4°C° 0 mm 0 mps 588 mmHg 55%
04:00 +4°C° 0 mm 0 mps 588 mmHg 58%
05:00 +4°C° 0 mm 0 mps 588 mmHg 55%
06:00 +4°C° 0 mm 0 mps 589 mmHg 52%
07:00 +3°C° 0 mm 0 mps 589 mmHg 50%
08:00 +7°C° 0 mm 0 mps 591 mmHg 38%
09:00 +12°C° 0 mm 1 mps 593 mmHg 27%
10:00 +16°C° 0 mm 1 mps 595 mmHg 16%
11:00 +18°C° 0 mm 2 mps 595 mmHg 14%
12:00 +19°C° 0 mm 2 mps 595 mmHg 13%
13:00 +20°C° 0 mm 3 mps 595 mmHg 11%
14:00 +20°C° 0 mm 4 mps 595 mmHg 11%
15:00 +20°C° 0 mm 4 mps 595 mmHg 11%
16:00 +20°C° 0 mm 4 mps 595 mmHg 11%
17:00 +17°C° 0 mm 3 mps 593 mmHg 15%
18:00 +13°C° 0 mm 2 mps 592 mmHg 20%
19:00 +10°C° 0 mm 1 mps 591 mmHg 24%
20:00 +9°C° 0 mm 1 mps 591 mmHg 27%
21:00 +9°C° 0 mm 1 mps 591 mmHg 31%
22:00 +8°C° 0 mm 1 mps 591 mmHg 34%
23:00 +7°C° 0 mm 1 mps 591 mmHg 37%

29 October, Thursday

Time Temperature Precipitation Wind Pressure Humidity
00:00 +7°C° 0 mm 1 mps 591 mmHg 40%
01:00 +6°C° 0 mm 1 mps 590 mmHg 43%
02:00 +6°C° 0 mm 1 mps 590 mmHg 47%
03:00 +5°C° 0 mm 1 mps 590 mmHg 51%
04:00 +5°C° 0 mm 1 mps 590 mmHg 55%
05:00 +5°C° 0 mm 1 mps 590 mmHg 53%
06:00 +4°C° 0 mm 1 mps 590 mmHg 51%
07:00 +3°C° 0 mm 0 mps 590 mmHg 49%
08:00 +8°C° 0 mm 1 mps 592 mmHg 39%
09:00 +12°C° 0 mm 1 mps 594 mmHg 29%
10:00 +15°C° 0 mm 1 mps 596 mmHg 18%
11:00 +17°C° 0 mm 2 mps 596 mmHg 17%
12:00 +18°C° 0 mm 2 mps 596 mmHg 15%
13:00 +19°C° 0 mm 3 mps 597 mmHg 13%
14:00 +20°C° 0 mm 3 mps 596 mmHg 13%
15:00 +20°C° 0 mm 4 mps 596 mmHg 13%
16:00 +20°C° 0 mm 4 mps 596 mmHg 13%
17:00 +16°C° 0 mm 3 mps 595 mmHg 17%
18:00 +12°C° 0 mm 3 mps 593 mmHg 22%
19:00 +9°C° 0 mm 2 mps 592 mmHg 27%
20:00 +8°C° 0 mm 2 mps 592 mmHg 31%
21:00 +8°C° 0 mm 1 mps 592 mmHg 34%
22:00 +8°C° 0 mm 1 mps 592 mmHg 38%
23:00 +7°C° 0 mm 1 mps 592 mmHg 42%

30 October, Friday

Time Temperature Precipitation Wind Pressure Humidity
00:00 +6°C° 0 mm 1 mps 591 mmHg 47%
01:00 +5°C° 0 mm 1 mps 591 mmHg 52%
02:00 +4°C° 0 mm 0 mps 591 mmHg 54%
03:00 +3°C° 0 mm 0 mps 590 mmHg 57%
04:00 +3°C° 0 mm 0 mps 590 mmHg 59%
05:00 +3°C° 0 mm 0 mps 590 mmHg 58%
06:00 +3°C° 0 mm 0 mps 590 mmHg 58%
07:00 +3°C° 0 mm 0 mps 590 mmHg 57%
08:00 +7°C° 0 mm 1 mps 592 mmHg 45%
09:00 +11°C° 0 mm 1 mps 594 mmHg 32%
10:00 +15°C° 0 mm 1 mps 596 mmHg 20%
11:00 +16°C° 0 mm 1 mps 596 mmHg 18%
12:00 +18°C° 0 mm 2 mps 596 mmHg 16%
13:00 +19°C° 0 mm 2 mps 596 mmHg 14%
14:00 +19°C° 0 mm 3 mps 595 mmHg 14%
15:00 +19°C° 0 mm 4 mps 595 mmHg 14%
16:00 +19°C° 0 mm 4 mps 595 mmHg 14%
17:00 +16°C° 0 mm 3 mps 593 mmHg 19%
18:00 +12°C° 0 mm 2 mps 592 mmHg 24%
19:00 +9°C° 0 mm 1 mps 591 mmHg 29%
20:00 +9°C° 0 mm 1 mps 591 mmHg 31%
21:00 +8°C° 0 mm 1 mps 591 mmHg 33%
22:00 +8°C° 0 mm 1 mps 591 mmHg 35%
23:00 +7°C° 0 mm 1 mps 590 mmHg 40%

31 October, Saturday

Time Temperature Precipitation Wind Pressure Humidity
00:00 +6°C° 0 mm 1 mps 590 mmHg 45%
01:00 +6°C° 0 mm 1 mps 590 mmHg 50%
02:00 +5°C° 0 mm 1 mps 589 mmHg 53%
03:00 +5°C° 0 mm 1 mps 589 mmHg 56%
04:00 +3°C° 0 mm 0 mps 588 mmHg 60%
05:00 +3°C° 0 mm 0 mps 588 mmHg 59%
06:00 +3°C° 0 mm 0 mps 589 mmHg 58%
07:00 +3°C° 0 mm 0 mps 589 mmHg 58%
08:00 +7°C° 0 mm 0 mps 591 mmHg 45%
09:00 +12°C° 0 mm 1 mps 593 mmHg 33%
10:00 +15°C° 0 mm 1 mps 595 mmHg 20%
Show more